TimeAKDT,TemperatureF,Dew PointF,Humidity,Sea Level PressureIn,VisibilityMPH,Wind Direction,Wind SpeedMPH,Gust SpeedMPH,PrecipitationIn,Events,Conditions,WindDirDegrees,DateUTC
12:53 AM,34.0,32.0,92,29.66,10.0,NE,3.5,-,N/A,,Clear,50,2012-10-19 08:53:00
1:53 AM,32.0,30.9,96,29.65,10.0,Calm,Calm,-,N/A,,Clear,0,2012-10-19 09:53:00
2:53 AM,32.0,32.0,100,29.63,10.0,Calm,Calm,-,N/A,,Clear,0,2012-10-19 10:53:00
3:53 AM,32.0,32.0,100,29.61,10.0,ENE,3.5,-,N/A,,Clear,60,2012-10-19 11:53:00
4:53 AM,33.1,30.9,92,29.60,10.0,Calm,Calm,-,N/A,,Scattered Clouds,0,2012-10-19 12:53:00
5:53 AM,33.1,33.1,100,29.60,10.0,Calm,Calm,-,N/A,,Clear,0,2012-10-19 13:53:00
6:53 AM,33.1,32.0,96,29.60,10.0,Calm,Calm,-,N/A,,Mostly Cloudy,0,2012-10-19 14:53:00
7:53 AM,35.1,32.0,89,29.60,10.0,Calm,Calm,-,N/A,,Mostly Cloudy,0,2012-10-19 15:53:00
8:53 AM,34.0,33.1,96,29.60,10.0,NE,3.5,-,N/A,,Mostly Cloudy,50,2012-10-19 16:53:00
9:53 AM,37.0,35.1,93,29.61,10.0,Calm,Calm,-,N/A,,Mostly Cloudy,0,2012-10-19 17:53:00
10:53 AM,39.9,34.0,79,29.61,10.0,Calm,Calm,-,0.00,,Scattered Clouds,0,2012-10-19 18:53:00
11:53 AM,41.0,35.1,79,29.61,10.0,NNW,3.5,-,N/A,,Overcast,330,2012-10-19 19:53:00
12:53 PM,42.1,33.1,70,29.61,10.0,West,3.5,-,N/A,,Mostly Cloudy,280,2012-10-19 20:53:00
1:53 PM,44.1,30.0,58,29.60,10.0,East,5.8,-,N/A,,Overcast,90,2012-10-19 21:53:00
2:53 PM,44.1,30.9,60,29.61,10.0,ESE,6.9,-,N/A,,Overcast,120,2012-10-19 22:53:00
3:53 PM,43.0,30.0,60,29.61,10.0,ENE,3.5,-,N/A,,Overcast,70,2012-10-19 23:53:00
4:53 PM,41.0,30.9,67,29.62,10.0,East,4.6,-,N/A,,Overcast,90,2012-10-20 00:53:00
5:53 PM,39.9,28.9,65,29.62,10.0,ENE,3.5,-,N/A,,Overcast,70,2012-10-20 01:53:00
6:53 PM,37.9,32.0,79,29.62,10.0,Calm,Calm,-,N/A,,Overcast,0,2012-10-20 02:53:00
7:53 PM,37.0,30.9,79,29.63,10.0,Calm,Calm,-,N/A,,Partly Cloudy,0,2012-10-20 03:53:00
8:53 PM,36.0,30.9,82,29.64,10.0,Calm,Calm,-,N/A,,Overcast,0,2012-10-20 04:53:00
9:53 PM,36.0,30.9,82,29.65,10.0,Calm,Calm,-,N/A,,Mostly Cloudy,0,2012-10-20 05:53:00
10:53 PM,37.0,28.9,73,29.67,10.0,Calm,Calm,-,N/A,,Mostly Cloudy,0,2012-10-20 06:53:00
11:53 PM,39.0,27.0,62,29.68,10.0,Calm,Calm,-,N/A,,Overcast,0,2012-10-20 07:53:00